map of BIK home
Great Circle Mapper logo
BIK - Airport
Location
City:  Biak, Indonesia
Name:Frans Kaisiepo
ICAO / IATA:WABB / BIK

Details
Type:Airport (Aerodrome, Airfield)
Use:Public/Civil
Latitude:111'24"S (-1.190016)
Longitude:13606'29"E (136.107997)
Datum:WGS 1984
Elevation:46 ft (14 m)
Runways:1
Longest:11715 × 150 ft (3571 × 45.5 m), paved

Time
Time Zone:UTC+9
Local Time:

Weather
METAR:WABB 270200Z 23002KT 9999 SCT018 27/25 Q1009
TAF:WABB 271100Z 2712/2818 34004KT 9999 SCT017
TEMPO 2712/2716 FEW017CB
BECMG 2718/2720 06005KT
TEMPO 2722/2724 -RA FEW017CB
BECMG 2802/2806 13006KT

Related Locations
Nearby:
Farthest:CPU: 12216 mi / 19660 km
Cururupu, MA, BR

Find:

   beyond  
but within

Other Information
Maps:
NOTAMs:
Links:
Sources:

  
flag of Indonesia   

Sectional Chart

Flight Planning
at skyvector.com

Satellite Image

Google Maps Satellite View

 

Copyright © 2004-2014 Karl L. Swartz. All rights reserved.
The Great Circle Mapper name and logo are trademarks of the Great Circle Mapper.
All other trademarks mentioned herein belong to their respective owners.
Please see credits for attibutions and further copyright information.

  Follow gcmap on Facebook Follow gcmap on Twitter

hCard Microformat

Geo Microformat